Location: Bastrop State Park
(30.1090°N, 97.2819°W)
Time: 06:08:52
(UTC-05:00)

Daily predictions for brighter satellites

Satellite Brightness Start Highest point End
(mag) Time Altitude Azimuth Time Altitude Azimuth Time Altitude Azimuth
Cosmos 1500 3.9 20:48:38 10° NNW 20:52:19 55° W 20:55:58 10° S
Cosmos 1536 Rocket 4.0 20:48:48 10° SSW 20:53:05 66° W 20:57:23 10° N
Hubble Space Telescope 1.3 20:50:08 10° SW 20:54:02 42° SSE 20:57:58 10° E
Cosmos 1025 Rocket 4.0 20:50:56 10° SSE 20:54:33 27° E 20:58:10 10° NNE
Aureole 3 Rocket 3.6 20:51:03 10° S 20:57:21 65° E 21:01:50 10° NNE
CENTAUR R/B 3.3 20:49:20 10° NNW 20:57:32 88° WSW 21:05:59 10° SSE
DNEPR-1 R/B 3.9 20:53:18 10° NNW 20:57:36 56° ENE 21:02:28 10° SE
PSLV R/B 4.5 20:54:50 10° NW 20:57:39 30° NNE 21:00:27 10° E
CZ-3A R/B 1.7 20:49:15 10° SW 20:58:24 75° SE 21:01:16 10° NE
Cosmos 405 Rocket 3.2 20:56:11 10° SSW 20:59:54 64° W 21:03:43 10° N
Cosmos 1939 Rocket 4.4 20:59:24 10° ESE 21:02:10 19° ENE 21:04:57 10° NNE
CZ-3B Rocket 3.3 20:59:14 10° SW 21:02:16 22° SSE 21:07:23 10° ESE
Okean 1-7 Rocket 4.0 20:58:55 10° SSE 21:03:06 42° E 21:07:21 10° NNE
SJ-6B 4.4 20:59:26 10° SSW 21:03:16 38° W 21:07:06 10° NNW
Cosmos 1441 Rocket 3.1 20:59:45 10° S 21:03:26 63° E 21:07:08 10° NNE
COSMOS 2487 3.6 21:05:28 10° SSE 21:08:23 24° E 21:11:20 10° NE
Cosmos 405 3.8 21:11:12 10° NNE 21:14:25 32° E 21:16:52 15° SE
ASTRO E2 4.1 21:14:16 10° W 21:17:41 27° SSW 21:20:28 13° SSE
USA 186 1.7 21:18:24 10° S 21:21:34 85° W 21:24:38 10° NNW
Cosmos 2082 Rocket 2.5 21:21:00 10° S 21:26:20 43° ESE 21:31:39 10° NE
GPS 2-14 Rocket1 4.3 21:26:03 10° SW 21:28:39 18° S 21:29:51 15° SSE
Meteor 1-23 Rocket 4.2 21:24:25 10° S 21:29:59 87° E 21:35:38 10° N
Aurora 2 Rocket 4.5 21:25:39 10° WSW 21:31:19 38° SSW 21:36:48 18° SE
Meteor 1-29 2.8 21:29:25 10° NNE 21:32:45 70° E 21:36:06 10° S
Cosmos 1743 4.1 21:31:25 10° NNW 21:35:04 39° W 21:38:43 10° SSW
Helios 1A 2.9 21:37:51 17° SSE 21:41:00 79° ENE 21:45:12 10° N
CZ-4B DEB 2.7 21:40:35 35° SE 21:41:31 52° ENE 21:44:26 10° N
Cosmos 1697 Rocket 4.3 21:42:46 10° NNE 21:46:29 18° ENE 21:48:28 15° E
OAO 3 Copernicus 4.3 21:41:47 10° SW 21:46:46 61° SSE 21:51:07 14° ENE
Fermi 4.3 21:43:04 10° WSW 21:46:51 38° S 21:47:50 32° SE
Cosmos 1666 3.8 21:43:29 10° NNW 21:47:02 42° W 21:50:35 10° SSW
Helios 1B rocket 3.5 21:49:03 10° N 21:53:01 46° WNW 21:56:59 10° SSW
Cosmos 1833 Rocket 2.6 21:49:11 10° SSW 21:54:46 75° ESE 22:00:23 10° NNE
Cosmos 2181 Rocket 4.0 21:51:49 15° S 21:57:08 62° E 22:03:19 10° NNE
Cosmos 2369 4.1 21:52:22 10° N 21:57:53 48° ENE 22:00:14 31° ESE
Resurs 01 Rocket 4.0 21:55:54 10° SW 21:59:12 20° W 22:02:31 10° NW
Cosmos 921 Rocket 3.3 21:56:14 10° N 22:00:33 50° ENE 22:01:40 40° ESE
Cosmos 2228 3.9 21:58:18 10° NNE 22:02:05 31° E 22:02:16 30° E
Okean 2 4.4 21:59:11 10° SSW 22:03:06 46° W 22:07:02 10° N
Cosmos 1624 Rocket 4.0 21:57:50 10° NNW 22:03:09 88° WSW 22:05:57 29° SSE
SPOT 5 3.9 22:05:12 24° ENE 22:05:24 24° ENE 22:08:53 10° NNE
Meteor 1-15 Rocket 4.2 22:02:18 10° N 22:07:52 79° W 22:11:25 23° S
Envisat 4.0 22:09:27 13° SSW 22:13:38 42° W 22:18:26 10° NNW
Cosmos 1515 4.4 22:12:18 20° SSW 22:14:39 51° W 22:18:22 10° N
MOS 1-B Rocket 4.1 22:12:59 36° SE 22:15:12 57° ENE 22:21:29 10° N
Lacrosse 5 3.7 22:18:43 17° ENE 22:18:43 17° ENE 22:20:00 10° ENE
H-2A R/B 3.3 22:16:13 22° ENE 22:16:28 22° ENE 22:20:19 10° NNE
Cosmos 962 Rocket 4.4 22:10:19 10° N 22:16:31 81° E 22:19:31 33° S
OAO 2 Rocket 3.1 22:17:16 10° WNW 22:22:11 78° SSW 22:23:07 57° SE
Cosmos 2056 Rocket 3.8 22:18:06 10° NNW 22:23:08 58° WSW 22:25:15 33° SSW
Cosmos 1066 Rocket 4.0 22:20:56 36° S 22:23:17 77° E 22:28:55 10° N
GPS 2-04 Rocket1 2.6 22:20:15 10° WSW 22:23:19 66° W 22:23:19 66° W
Mugunghwa Rocket 4.5 22:15:31 10° W 22:24:04 71° S 22:27:59 33° ESE
ARGOS 3.4 22:24:41 44° ESE 22:25:39 50° ENE 22:30:53 10° N
Cosmos 1437 Rocket 4.0 22:24:02 10° NNW 22:27:40 38° W 22:28:57 29° SW
Cosmos 1602 Rocket 3.9 22:30:43 47° ENE 22:30:43 47° ENE 22:34:15 10° NNE
Cosmos 1269 Rocket 3.9 22:31:13 57° SSE 22:32:06 68° ESE 22:37:21 10° NNE
SL-8 Rocket 4.0 22:26:48 10° N 22:33:03 66° E 22:34:39 49° SE
Cosmos 1048 Rocket 3.8 22:33:19 60° SSE 22:34:10 74° ESE 22:39:20 10° NNE
Hubble Space Telescope 1.2 22:31:00 10° W 22:34:15 51° WSW 22:34:15 51° WSW
MetOp-B 4.0 22:35:33 58° SSE 22:36:39 84° ENE 22:42:02 10° N
Cosmos 1980 Rocket 3.3 22:32:01 10° N 22:36:50 28° ENE 22:37:10 28° ENE
Cosmos 2366 rocket 4.1 22:35:07 10° N 22:41:06 54° E 22:41:47 51° ESE
YAOGAN 6 4.4 22:42:08 24° WSW 22:42:30 24° W 22:45:25 10° NW
ERS-1 Rocket 3.4 22:41:25 42° SSW 22:42:45 56° W 22:47:41 10° NNW
Meteor 1-4 Rocket 4.0 22:40:07 10° N 22:42:08 31° N 22:42:08 31° N
NOAA 11 4.4 22:48:20 50° SSW 22:49:34 65° WSW 22:54:58 10° NNW
Cosmos 2322 Rocket 4.4 22:47:36 10° NE 22:49:43 12° ENE 22:50:04 12° ENE
Tiangong 2 4.0 22:48:08 10° NNW 22:49:34 13° NNE 22:49:34 13° NNE
Cosmos 1452 Rocket 3.4 22:49:32 10° NNW 22:54:48 80° WSW 22:55:04 77° SW
Cosmos 1809 Rocket 4.2 22:51:47 10° N 22:57:53 82° E 22:58:32 72° SSE
DMSP B5D2-2 4.3 22:53:50 10° NNE 22:58:15 56° ENE 22:58:15 56° ENE
Cosmos 1959 Rocket 4.4 22:53:50 10° N 23:00:12 89° W 23:01:10 66° S
SPOT 1/Viking Rocket 3.6 23:08:38 77° NNW 23:08:38 77° NNW 23:13:24 10° NNW
Meteor 1-21 4.1 23:08:15 88° WSW 23:08:17 88° W 23:14:03 10° N
Meteor 2-16 Rocket 4.4 23:07:28 10° N 23:13:20 67° ENE 23:13:20 67° ENE
USA 229 DEB 3.9 23:12:44 10° NNW 23:19:53 62° ENE 23:20:30 60° E
USA 229 3.9 23:12:50 10° NNW 23:19:58 62° ENE 23:20:36 60° E
Terra 3.0 23:21:57 36° NNE 23:21:57 36° NNE 23:25:00 10° N
H-2A R/B 3.7 23:22:24 30° NNE 23:22:24 30° NNE 23:24:56 10° N
Lacrosse 5 rocket 4.2 23:23:30 10° NNE 23:25:28 13° NE 23:25:28 13° NE
Cosmos 1697 Rocket 3.3 23:25:17 10° NNW 23:30:13 48° W 23:30:13 48° W
SL-16 R/B 3.5 23:39:38 10° N 23:43:28 32° NE 23:43:28 32° NE
Nadezhda 3 Rocket 4.2 23:45:19 66° WNW 23:45:19 66° WNW 23:51:26 10° N
